Tracking 28091 objects as of 30-Sep-2023
HD Live streaming from Space Station
objects crossing your sky now

STARLINK-6293

Track STARLINK-6293 now!
10-day predictions
STARLINK-6293 is classified as:


NORAD ID: 57354
Int'l Code: 2023-099AC
Perigee: 559.5 km
Apogee: 561.2 km
Inclination: 43.0 °
Period: 95.7 minutes
Semi major axis: 6931 km
RCS: Unknown
Launch date: July 16, 2023
Source: United States (US)
Launch site: AIR FORCE EASTERN TEST RANGE (AFETR)
Your satellite tracking list
Your tracking list is empty




NASA's NSSDC Master Catalog

Two Line Element Set (TLE):
1 57354U 23099AC  23273.25001157  .00055888  00000-0  39147-2 0  9995
2 57354  43.0013  40.3322 0001257 254.4989 131.8733 15.04451413  5860
Source of the keplerian elements: AFSPC